Zurück zum Katalog

FENGYUN 1C DEB

AktivSSO
NORAD 30417·DEBRIS·🇨🇳 China

Gestartet May 10, 1999 von Taiyuan Satellite Launch Center

Loading…

Nächste Überflüge (nächste 24 Stunden)

TLE

AktuellSource: Space-Track

Epoche: Sep 14, 2026, 10:43 UTC

1 30417U 99025AEG 26257.44694326  .00000299  00000-0  17349-3 0  9997
2 30417  98.7150 245.6474 0064682  53.3711  98.2891 14.14934407 12811

Verfolge FENGYUN 1C DEB in Echtzeit mit AllMySat

Download on the App Store